Location: Aula-Vintri
(58.3875°N, 22.4322°E)
Time: 08:27:32
(UTC+00:00)

Cosmos 2297 Rocket - Pass Details

Date: 13 October 2019
Orbit: 841 x 842 km, 71.0° (Epoch: 14 November)

Event Time Altitude Azimuth Distance (km) Brightness Sun altitude
Rises 16:26:52 0° 258° (WSW) 3,397 7.5 -8.0°
Reaches altitude 10° 16:29:33 10° 268° (W) 2,465 6.4 -8.4°
Maximum altitude 16:34:39 33° 332° (NNW) 1,386 3.6 -9.0°
Drops below altitude 10° 16:39:45 10° 36° (NE) 2,472 4.3 -9.7°
Enters shadow 16:42:08 - 45° (NE) 3,292 4.9 -10.0°
